Temp
16 16 15 15 15 16 15 14 15 15 15 15 14 15 15 16 16 17 17 18 19 19 20 20 21 20 21 20 20 20 19 19 18 20 20 21 21 20 20 21 21 22
14 14 15 15 15 15 15 15 14 14 14 14 14 15 15 15 15 16 16 16 18 18 19 19 20 20 20 19 19 19 18 18 17 19 18 18 19 19 19 19 19 20
13 13 13 12 12 12 13 13 14 13 13 13 14 14 13 14 14 15 15 16 16 17 18 18 19 20 19 19 19 18 17 17 16 17 17 17 18 16 17 18 18 18
13 13 12 12 12 11 12 11 11 11 12 11 12 12 13 12 13 13 14 15 16 16 17 17 18 19 19 18 18 17 18 16 17 16 16 16 16 16 16 16 16 16
12 11 12 11 12 12 11 11 10 10 10 10 11 12 11 11 11 12 12 12 14 14 15 16 17 17 19 18 18 16 17 16 16 15 14 14 15 15 15 15 14 13
11 12 11 11 11 10 9 10 9 10 10 9 10 11 11 11 10 11 11 11 12 13 14 14 15 16 17 17 17 16 16 15 15 15 13 13 13 14 14 13 13 12
10 10 10 11 10 10 8 9 9 9 9 9 9 9 10 9 10 9 10 10 11 11 12 12 13 14 16 17 16 15 15 15 14 14 12 12 12 11 13 12 12 11
9 10 9 9 9 9 8 9 8 9 9 8 8 8 9 8 9 9 9 10 9 10 11 12 12 13 14 16 15 14 14 14 13 13 12 11 11 10 11 11 11 10
9 8 8 8 7 7 6 7 8 8 9 7 8 8 8 8 8 8 8 9 9 9 10 10 11 12 13 14 15 14 13 13 13 12 11 10 10 9 10 10 9 9
8 8 7 7 6 7 6 6 7 7 8 7 7 8 7 7 8 8 7 7 7 7 8 9 10 11 12 13 15 13 12 12 11 11 11 11 10 9 9 9 8 7
6 6 5 5 5 6 6 6 6 6 7 6 6 6 6 6 6 7 6 6 6 6 7 7 8 9 10 11 14 13 12 11 10 10 10 10 10 10 10 9 8 7
5 5 5 4 4 4 5 5 5 5 5 5 6 5 5 6 5 5 5 5 5 6 6 6 7 8 9 9 12 12 11 11 10 9 10 9 9 9 10 9 8 7
5 4 4 3 3 3 4 4 4 4 4 4 5 5 4 4 4 4 4 5 5 5 5 5 6 7 8 8 10 11 10 9 9 9 8 8 8 8 9 9 8 8
2 3 3 2 3 2 3 3 4 4 4 5 5 4 4 4 4 4 4 4 4 4 4 4 5 5 6 6 9 10 9 8 8 7 7 7 7 7 8 8 8 8
1 1 1 1 2 2 2 2 3 3 4 4 4 3 4 4 4 4 3 2 3 3 3 3 3 4 5 5 10 9 8 7 7 7 6 5 5 5 6 7 7 7
1 0 0 0 -0 0 1 1 1 2 2 2 2 3 3 4 3 3 2 2 1 1 1 2 2 3 4 8 14 8 7 6 6 5 5 5 4 3 4 5 5 6
-0 -1 -0 -1 -1 -1 -0 -0 0 0 0 1 1 2 2 2 3 2 1 1 1 -0 -0 0 1 2 4 12 15 15 6 6 4 4 5 4 3 2 2 3 4 5
-2 -1 -2 -2 -1 -2 -1 -1 -1 -1 -1 -0 -0 0 2 2 1 1 1 0 -0 -1 -1 -1 -0 2 7 11 14 15 12 4 4 3 4 3 2 2 2 2 2 3
-2 -3 -3 -3 -3 -3 -2 -2 -3 -2 -2 -2 -2 -0 1 0 0 1 0 -0 -1 -2 -2 -1 -2 1 6 11 12 13 14 6 3 2 2 2 2 2 1 1 1 1
-3 -3 -4 -4 -3 -4 -3 -4 -4 -4 -3 -3 -2 -1 -1 -1 -1 -0 -0 -1 -1 -2 -3 -3 -3 -0 5 10 11 12 13 8 1 1 2 2 2 1 1 1 1 1
-3 -4 -5 -5 -5 -5 -5 -6 -5 -5 -5 -4 -4 -3 -3 -4 -3 -3 -2 -1 -2 -2 -3 -3 -3 1 6 8 9 10 12 7 1 0 1 1 1 1 1 1 1 1
-4 -5 -5 -6 -6 -6 -7 -7 -6 -6 -7 -5 -4 -4 -4 -3 -4 -3 -3 -3 -2 -2 -3 -4 -3 1 5 7 8 9 10 2 -0 -3 -2 -1 -1 1 1 1 1 1
-5 -5 -6 -7 -7 -8 -9 -8 -8 -8 -7 -5 -6 -5 -5 -5 -6 -5 -3 -4 -3 -3 -4 -4 -4 -1 2 5 6 8 6 0 -2 -5 -4 -3 -2 -1 -0 0 1 1
-5 -5 -7 -7 -9 -10 -9 -9 -8 -8 -8 -6 -8 -7 -7 -7 -7 -6 -5 -4 -5 -6 -5 -5 -5 -2 0 2 5 6 5 -0 -3 -6 -7 -6 -4 -2 -1 -1 1 3
-5 -6 -7 -8 -10 -10 -10 -11 -10 -10 -9 -8 -8 -8 -9 -8 -7 -7 -7 -7 -7 -7 -4 -5 -6 -4 -1 -0 4 5 3 -1 -3 -8 -10 -9 -6 -6 -4 -3 -2 -0
-7 -8 -9 -10 -10 -11 -11 -11 -10 -11 -11 -10 -10 -10 -10 -10 -9 -9 -10 -10 -8 -8 -8 -6 -7 -6 -4 -1 2 3 4 -1 -4 -10 -13 -11 -10 -8 -7 -6 -4 -3
MSLP
1038.49 1038.37 1038.29 1038.13 1038.05 1037.93 1037.81 1037.61 1037.29 1037.05 1036.73 1036.41 1036.21 1035.89 1035.65 1035.25 1034.89 1034.41 1034.01 1033.57 1033.17 1032.81 1032.41 1032.01 1031.65 1031.29 1030.97 1030.69 1030.53 1030.37 1030.17 1029.93 1029.61 1029.09 1028.69 1028.13 1027.69 1027.29 1026.89 1026.61 1026.33 1026.17
1039.17 1039.09 1038.93 1038.73 1038.57 1038.41 1038.33 1038.13 1037.97 1037.65 1037.45 1037.09 1036.81 1036.45 1036.13 1035.77 1035.37 1034.89 1034.41 1033.93 1033.45 1033.13 1032.77 1032.37 1031.93 1031.69 1031.45 1031.17 1030.93 1030.73 1030.57 1030.33 1030.13 1029.69 1029.29 1028.77 1028.41 1028.05 1027.53 1027.21 1026.97 1026.73
1039.77 1039.61 1039.53 1039.41 1039.29 1039.17 1038.89 1038.77 1038.49 1038.29 1038.01 1037.69 1037.33 1036.93 1036.65 1036.29 1035.85 1035.41 1034.93 1034.41 1033.85 1033.45 1033.05 1032.65 1032.21 1031.85 1031.77 1031.57 1031.33 1031.09 1030.93 1030.77 1030.61 1030.25 1029.77 1029.29 1029.09 1028.85 1028.37 1027.93 1027.61 1027.45
1040.29 1040.25 1040.13 1040.01 1039.77 1039.65 1039.37 1039.21 1038.93 1038.73 1038.41 1038.09 1037.69 1037.37 1037.05 1036.73 1036.33 1035.89 1035.41 1034.93 1034.33 1033.89 1033.49 1033.05 1032.61 1032.17 1031.97 1031.81 1031.57 1031.37 1031.21 1031.29 1031.17 1030.89 1030.29 1029.81 1029.61 1029.49 1029.09 1028.69 1028.33 1028.09
1040.89 1040.73 1040.49 1040.37 1040.17 1040.05 1039.81 1039.49 1039.33 1039.13 1038.85 1038.57 1038.13 1037.73 1037.41 1037.09 1036.69 1036.29 1035.89 1035.49 1034.93 1034.45 1033.97 1033.53 1033.09 1032.69 1032.21 1032.09 1031.85 1031.69 1031.41 1031.45 1031.41 1031.29 1030.85 1030.37 1030.13 1029.89 1029.73 1029.41 1029.01 1028.73
1041.29 1041.13 1041.05 1040.77 1040.61 1040.33 1040.29 1039.93 1039.77 1039.45 1039.09 1038.85 1038.49 1038.17 1037.81 1037.57 1037.17 1036.77 1036.41 1036.01 1035.49 1035.01 1034.53 1034.01 1033.57 1033.13 1032.65 1032.41 1032.25 1032.09 1031.81 1031.69 1031.61 1031.53 1031.37 1030.89 1030.73 1030.53 1030.29 1030.05 1029.65 1029.37
1041.65 1041.49 1041.37 1041.09 1040.89 1040.69 1040.61 1040.29 1040.09 1039.81 1039.45 1039.29 1038.89 1038.57 1038.17 1037.93 1037.49 1037.21 1036.81 1036.45 1036.05 1035.53 1035.01 1034.57 1034.05 1033.57 1033.09 1032.73 1032.61 1032.49 1032.25 1032.05 1031.97 1031.77 1031.61 1031.41 1031.17 1031.13 1030.81 1030.49 1030.21 1030.05
1042.01 1041.85 1041.73 1041.45 1041.25 1040.97 1040.93 1040.57 1040.41 1040.13 1039.77 1039.49 1039.17 1038.93 1038.65 1038.29 1037.93 1037.57 1037.21 1036.85 1036.45 1035.97 1035.45 1035.05 1034.57 1034.09 1033.61 1033.13 1032.97 1032.85 1032.65 1032.41 1032.33 1032.13 1031.93 1031.77 1031.65 1031.53 1031.33 1031.09 1030.85 1030.69
1042.29 1042.17 1042.05 1041.81 1041.65 1041.29 1041.21 1040.89 1040.65 1040.41 1040.13 1039.93 1039.49 1039.13 1038.93 1038.61 1038.29 1037.93 1037.61 1037.21 1036.85 1036.41 1035.93 1035.45 1034.97 1034.57 1034.05 1033.57 1033.25 1033.21 1033.09 1032.89 1032.73 1032.61 1032.37 1032.17 1032.13 1032.05 1031.89 1031.61 1031.41 1031.17
1042.65 1042.45 1042.37 1042.13 1041.97 1041.61 1041.57 1041.25 1041.01 1040.69 1040.37 1040.25 1039.89 1039.53 1039.25 1038.85 1038.57 1038.25 1037.89 1037.53 1037.21 1036.81 1036.33 1035.89 1035.41 1034.97 1034.49 1034.01 1033.57 1033.57 1033.49 1033.33 1033.13 1033.05 1032.89 1032.69 1032.57 1032.53 1032.37 1032.09 1031.81 1031.69
1042.93 1042.73 1042.65 1042.45 1042.25 1042.01 1041.81 1041.49 1041.25 1040.97 1040.69 1040.41 1040.13 1039.85 1039.49 1039.17 1038.85 1038.49 1038.21 1037.85 1037.53 1037.17 1036.77 1036.33 1035.85 1035.33 1034.89 1034.41 1033.89 1033.81 1033.77 1033.65 1033.57 1033.41 1033.33 1033.17 1033.01 1032.77 1032.73 1032.61 1032.37 1032.13
1043.09 1043.01 1042.81 1042.73 1042.49 1042.29 1042.05 1041.73 1041.45 1041.21 1040.93 1040.65 1040.33 1040.09 1039.73 1039.45 1039.13 1038.85 1038.53 1038.13 1037.81 1037.45 1037.09 1036.73 1036.25 1035.77 1035.33 1034.89 1034.17 1034.05 1033.97 1033.93 1033.81 1033.73 1033.61 1033.53 1033.41 1033.21 1032.93 1032.89 1032.77 1032.53
1043.37 1043.21 1043.01 1042.93 1042.69 1042.49 1042.25 1041.93 1041.61 1041.33 1041.05 1040.81 1040.45 1040.25 1039.93 1039.53 1039.29 1039.05 1038.81 1038.45 1038.13 1037.73 1037.41 1037.01 1036.57 1036.09 1035.69 1035.25 1034.61 1034.21 1034.17 1034.13 1034.05 1033.93 1033.85 1033.73 1033.77 1033.61 1033.33 1033.13 1033.01 1032.81
1043.65 1043.41 1043.25 1043.09 1042.85 1042.61 1042.41 1042.09 1041.77 1041.45 1041.17 1040.85 1040.57 1040.33 1040.01 1039.73 1039.45 1039.21 1038.93 1038.69 1038.37 1038.05 1037.69 1037.29 1036.85 1036.37 1035.97 1035.57 1034.81 1034.37 1034.33 1034.29 1034.17 1034.13 1033.97 1033.97 1033.89 1033.85 1033.61 1033.37 1033.17 1032.97
1043.73 1043.53 1043.37 1043.25 1043.01 1042.73 1042.49 1042.21 1041.93 1041.61 1041.25 1040.97 1040.69 1040.41 1040.13 1039.85 1039.53 1039.37 1039.09 1038.81 1038.49 1038.25 1037.93 1037.53 1037.09 1036.69 1036.29 1035.81 1034.73 1034.53 1034.53 1034.41 1034.41 1034.25 1034.17 1034.09 1034.01 1034.01 1033.85 1033.57 1033.37 1033.05
1043.77 1043.61 1043.45 1043.37 1043.17 1042.89 1042.65 1042.33 1042.05 1041.77 1041.41 1041.13 1040.81 1040.53 1040.21 1039.85 1039.57 1039.41 1039.21 1039.01 1038.69 1038.45 1038.21 1037.89 1037.49 1037.01 1036.57 1035.61 1034.41 1034.69 1034.61 1034.69 1034.57 1034.45 1034.29 1034.25 1034.17 1034.17 1034.01 1033.73 1033.57 1033.29
1043.89 1043.73 1043.57 1043.49 1043.21 1043.01 1042.77 1042.53 1042.21 1041.93 1041.65 1041.25 1040.89 1040.61 1040.25 1039.93 1039.65 1039.45 1039.25 1039.05 1038.89 1038.73 1038.45 1038.13 1037.77 1037.37 1036.77 1035.57 1034.61 1034.29 1034.85 1034.77 1034.81 1034.61 1034.41 1034.33 1034.37 1034.37 1034.21 1033.93 1033.73 1033.49
1044.01 1043.89 1043.73 1043.57 1043.33 1043.13 1042.93 1042.65 1042.37 1042.05 1041.73 1041.37 1041.05 1040.69 1040.25 1040.01 1039.85 1039.45 1039.25 1039.09 1038.97 1038.89 1038.69 1038.37 1038.05 1037.65 1036.89 1035.81 1035.01 1034.49 1034.37 1034.97 1034.81 1034.81 1034.57 1034.49 1034.49 1034.45 1034.33 1034.17 1033.89 1033.57
1044.09 1043.97 1043.85 1043.65 1043.45 1043.25 1043.05 1042.77 1042.53 1042.21 1041.85 1041.53 1041.21 1040.77 1040.37 1040.17 1039.93 1039.53 1039.25 1039.13 1039.01 1038.85 1038.65 1038.41 1038.21 1037.85 1037.13 1036.09 1035.33 1034.89 1034.37 1034.81 1034.97 1034.89 1034.73 1034.57 1034.53 1034.45 1034.37 1034.25 1034.01 1033.73
1044.17 1044.05 1043.93 1043.73 1043.53 1043.37 1043.17 1042.97 1042.73 1042.37 1042.05 1041.77 1041.37 1040.89 1040.53 1040.29 1040.01 1039.65 1039.37 1039.17 1038.97 1038.81 1038.61 1038.41 1038.21 1037.89 1037.25 1036.25 1035.65 1035.13 1034.61 1034.65 1035.17 1035.01 1034.85 1034.61 1034.53 1034.45 1034.33 1034.21 1034.01 1033.77
1044.33 1044.21 1044.01 1043.77 1043.65 1043.49 1043.33 1043.17 1042.89 1042.49 1042.21 1041.89 1041.53 1041.05 1040.69 1040.41 1040.05 1039.77 1039.49 1039.21 1038.97 1038.77 1038.53 1038.29 1038.13 1037.81 1037.17 1036.45 1035.89 1035.37 1034.77 1034.93 1035.29 1035.17 1034.93 1034.69 1034.57 1034.49 1034.29 1034.17 1033.97 1033.73
1044.49 1044.33 1044.09 1043.89 1043.77 1043.61 1043.53 1043.29 1043.01 1042.69 1042.37 1042.01 1041.57 1041.17 1040.85 1040.53 1040.25 1040.01 1039.65 1039.21 1038.93 1038.73 1038.45 1038.21 1037.93 1037.69 1037.21 1036.65 1036.09 1035.61 1034.97 1035.29 1035.41 1035.33 1035.05 1034.85 1034.69 1034.45 1034.29 1034.09 1033.93 1033.73
1044.57 1044.37 1044.09 1043.93 1043.81 1043.77 1043.65 1043.45 1043.09 1042.77 1042.49 1042.09 1041.65 1041.29 1040.97 1040.69 1040.45 1040.09 1039.65 1039.25 1038.93 1038.73 1038.57 1038.25 1037.93 1037.61 1037.33 1036.85 1036.33 1035.73 1035.25 1035.45 1035.49 1035.45 1035.33 1035.01 1034.81 1034.57 1034.41 1034.17 1033.97 1033.73
1044.65 1044.37 1044.13 1044.01 1043.93 1043.89 1043.69 1043.53 1043.29 1042.97 1042.61 1042.21 1041.89 1041.37 1041.05 1040.85 1040.57 1040.05 1039.65 1039.37 1039.17 1038.97 1038.77 1038.33 1037.89 1037.61 1037.37 1037.05 1036.53 1035.93 1035.53 1035.57 1035.57 1035.53 1035.45 1035.25 1034.93 1034.65 1034.49 1034.29 1033.97 1033.69
1044.65 1044.49 1044.37 1044.21 1044.09 1043.93 1043.81 1043.57 1043.29 1043.01 1042.65 1042.37 1041.97 1041.57 1041.29 1041.01 1040.61 1040.13 1039.73 1039.57 1039.45 1039.17 1038.77 1038.37 1037.93 1037.57 1037.33 1037.09 1036.65 1036.09 1035.77 1035.73 1035.69 1035.77 1035.73 1035.57 1035.17 1034.81 1034.61 1034.41 1034.17 1033.97
1044.81 1044.73 1044.61 1044.41 1044.13 1043.89 1043.77 1043.53 1043.25 1042.97 1042.73 1042.37 1042.05 1041.77 1041.37 1041.01 1040.65 1040.33 1040.01 1039.73 1039.53 1039.21 1038.81 1038.37 1037.97 1037.57 1037.29 1037.01 1036.65 1036.21 1035.93 1035.81 1035.93 1036.05 1035.93 1035.69 1035.49 1035.09 1034.61 1034.45 1034.33 1034.01
Wind_Speed
12 11 11 11 10 10 11 12 11 11 11 10 10 11 11 11 13 13 12 12 12 11 12 11 12 11 10 10 10 10 9 10 10 10 10 10 9 11 11 12 12 10
13 12 11 10 10 10 10 11 11 10 10 10 10 10 10 11 12 12 13 12 11 11 11 11 11 11 11 10 10 9 10 10 11 10 10 13 11 11 12 13 12 12
12 12 13 12 11 12 11 11 10 10 10 10 10 9 10 10 11 12 12 12 12 12 11 11 10 10 10 10 10 9 10 11 11 11 10 11 11 11 11 11 11 13
13 12 11 11 11 11 10 10 10 9 10 10 11 10 10 10 10 12 12 12 11 12 11 11 11 10 10 10 10 8 10 9 10 10 9 9 10 10 11 10 10 11
11 11 10 10 10 10 10 10 11 10 10 10 10 10 10 11 11 11 11 11 11 11 11 11 11 11 9 10 9 9 9 9 10 11 9 9 10 10 10 10 11 12
10 10 10 10 10 9 10 11 10 10 11 12 11 10 10 11 10 11 12 12 12 11 11 10 11 10 9 9 8 9 8 9 10 11 11 11 10 10 9 10 11 12
10 10 10 9 9 9 9 9 9 10 9 9 9 10 11 11 11 11 11 11 12 11 11 11 11 11 9 8 8 9 8 9 10 10 11 10 10 12 11 11 11 11
9 8 8 8 9 8 10 10 9 9 10 10 9 9 10 10 11 11 11 11 11 11 11 12 11 11 10 8 8 9 9 9 10 11 10 10 10 10 11 10 11 11
8 7 8 8 9 7 9 10 10 9 9 11 10 9 9 9 10 11 11 11 11 11 11 11 11 11 10 9 7 8 9 9 10 10 10 10 11 10 10 9 11 11
7 7 8 8 9 8 9 9 9 9 10 9 10 9 10 10 10 10 10 10 10 11 10 10 11 11 10 10 8 8 8 9 9 9 10 9 10 10 10 10 10 10
6 7 7 8 8 8 9 8 8 9 9 9 9 9 9 9 9 10 10 10 10 10 11 11 10 11 10 11 6 6 7 7 8 8 9 9 9 9 10 9 10 9
6 7 6 7 7 7 9 9 8 8 8 8 8 9 9 8 9 9 9 10 9 10 10 11 10 10 10 11 7 6 6 6 6 7 8 8 9 9 9 8 8 9
8 7 7 7 7 7 7 7 8 8 8 8 8 8 9 8 8 9 9 9 9 9 10 10 11 10 9 10 8 4 5 6 6 7 7 7 7 8 8 8 7 7
6 5 6 6 6 6 7 7 8 8 8 8 8 8 8 8 8 9 9 9 9 9 9 9 9 9 9 10 9 4 4 5 6 6 7 6 7 7 7 7 7 7
5 4 4 6 7 6 7 7 8 8 8 8 8 8 7 8 7 8 9 9 9 9 9 9 9 9 8 11 8 3 4 5 5 6 6 6 6 7 7 7 7 7
5 5 5 6 6 7 8 8 8 8 8 8 8 7 7 8 6 7 7 8 9 10 9 9 9 8 14 25 19 2 3 2 4 5 5 5 5 6 7 7 7 7
6 6 6 7 7 7 7 8 8 8 8 8 8 8 8 8 7 8 6 7 7 8 10 9 8 9 21 22 23 16 3 3 3 6 5 4 4 5 6 7 7 7
5 6 6 7 7 8 8 8 8 8 8 8 9 9 7 7 8 7 6 6 6 7 8 8 9 14 21 22 21 22 13 4 4 5 5 4 3 4 5 6 7 6
5 5 6 7 7 7 8 8 9 9 9 9 9 9 8 8 9 8 7 6 6 7 7 8 8 14 20 21 21 20 20 7 6 4 5 4 3 4 4 5 5 6
5 6 6 6 6 7 7 8 9 9 8 8 9 9 8 8 8 9 8 8 7 7 7 7 8 13 19 21 20 20 20 11 6 6 5 4 4 4 4 4 6 6
6 6 7 7 6 7 7 8 9 8 9 9 8 8 8 8 8 8 8 9 7 7 7 7 7 16 19 21 20 20 21 11 6 6 5 4 4 5 4 5 6 5
6 7 7 6 6 6 7 9 9 9 9 9 8 7 7 7 7 7 9 9 8 8 8 8 8 16 18 19 21 19 20 6 6 6 6 5 4 5 5 4 5 5
6 8 7 6 6 7 8 9 9 9 8 8 8 8 8 8 8 9 8 8 8 8 9 9 9 13 18 19 19 20 15 6 6 4 5 6 5 5 5 5 5 6
7 7 7 6 6 7 8 9 9 8 8 8 8 9 8 8 9 9 7 6 8 10 10 11 10 13 17 17 18 20 16 8 5 4 4 6 7 6 5 5 7 12
6 6 7 8 8 8 7 9 9 8 8 8 8 7 8 8 9 8 7 7 8 10 15 14 10 11 15 16 18 18 14 7 6 3 5 6 6 7 7 6 7 8
6 7 8 8 9 9 8 8 7 7 8 8 8 7 8 7 8 7 9 9 8 9 9 9 10 9 11 17 17 17 17 9 4 5 5 5 6 7 8 7 7 7
Wind_Direction
23 21 18 17 16 12 7 5 1 2 359 359 359 353 354 347 347 350 348 350 351 352 353 355 2 0 2 5 4 4 3 360 354 354 356 2 4 4 6 6 2 354
21 20 18 16 16 12 12 8 5 1 359 358 357 352 351 350 347 350 349 349 351 354 354 352 3 4 4 6 2 7 7 5 1 357 359 8 8 3 9 8 6 357
19 18 18 16 14 7 7 4 2 0 359 353 355 352 353 347 348 348 350 348 352 353 354 351 356 6 6 5 4 6 12 6 6 357 1 11 9 6 4 7 9 4
17 16 16 10 11 7 360 3 358 359 355 353 356 350 353 345 347 346 348 348 354 354 355 352 355 359 10 3 8 7 12 9 6 358 4 12 13 9 4 7 9 9
12 11 6 10 5 6 3 4 359 360 358 352 350 351 352 349 348 348 348 346 347 350 352 351 352 352 5 6 9 9 11 12 5 3 2 12 11 12 4 7 7 10
15 15 6 11 3 3 2 3 356 357 353 354 352 347 350 347 349 346 347 347 345 345 348 346 350 350 353 9 7 9 8 13 8 7 6 9 9 7 7 5 9 12
12 10 4 4 360 2 4 356 354 359 351 352 345 351 349 347 349 345 345 346 343 344 347 345 348 349 346 4 10 9 8 13 8 11 13 9 8 6 7 7 11 11
11 4 3 360 360 359 4 353 352 356 345 352 346 349 348 343 346 344 344 343 343 342 345 345 346 345 344 353 13 9 9 13 10 8 13 13 10 8 5 6 6 8
9 3 5 357 360 355 1 351 352 347 347 351 343 346 345 343 343 343 342 341 342 342 345 344 345 345 342 342 12 15 12 13 12 8 9 8 11 7 4 2 7 10
3 2 3 355 0 354 352 350 347 346 343 347 338 346 341 343 343 340 342 341 342 341 341 341 341 344 343 337 13 18 17 15 13 14 8 7 8 8 3 3 6 9
357 360 360 353 356 350 346 346 344 343 342 339 337 341 339 340 342 342 341 344 342 339 340 338 337 338 343 336 4 19 17 19 18 16 11 7 4 1 7 1 2 7
355 354 354 352 346 347 341 341 338 337 337 336 334 339 332 339 339 341 340 340 337 338 337 335 334 335 336 336 347 17 17 19 21 20 12 12 3 355 359 5 359 357
348 352 347 345 339 338 335 333 336 334 334 334 332 335 329 334 338 338 338 340 335 338 336 334 331 330 332 333 330 9 19 15 21 14 14 9 5 354 351 358 357 355
341 340 342 335 332 329 331 330 330 331 328 330 330 330 331 330 335 337 334 336 335 336 332 331 329 329 329 326 316 12 14 28 11 14 7 6 5 354 348 349 350 353
332 331 335 332 330 328 328 329 330 327 326 327 327 324 327 324 327 336 332 333 334 335 333 331 333 332 327 318 315 27 34 10 28 5 8 358 0 356 345 345 345 347
331 331 332 333 328 334 330 330 329 328 328 324 322 322 321 317 325 328 328 330 333 334 335 333 335 333 330 326 341 92 13 49 17 9 4 356 357 351 345 342 343 341
335 329 338 330 329 331 328 328 329 327 323 321 319 321 316 319 324 317 323 329 331 333 332 332 331 333 328 330 337 349 79 8 46 4 4 360 360 352 341 340 336 338
331 329 331 327 328 331 329 325 326 323 322 323 324 319 317 324 317 314 320 321 327 324 325 326 329 328 330 330 335 336 349 48 13 12 3 345 6 345 338 336 330 330
328 329 327 326 325 328 325 327 326 323 322 326 322 317 319 321 318 317 314 320 319 317 319 323 322 326 326 330 332 335 334 39 9 12 346 337 347 338 335 331 326 326
328 332 326 322 326 326 326 329 324 321 322 320 315 315 317 319 314 316 322 316 314 313 311 313 318 321 323 327 331 334 329 10 9 357 327 328 344 336 327 326 322 320
332 326 321 321 326 327 328 327 320 318 321 319 314 313 319 318 316 318 316 313 309 311 306 308 307 318 320 325 328 331 327 4 358 346 324 324 346 323 317 324 311 314
327 321 314 320 322 326 327 321 320 319 318 314 310 312 311 313 312 314 308 306 311 309 310 309 307 315 317 322 324 327 329 8 356 333 326 325 328 323 318 313 314 313
324 314 312 317 323 322 321 318 316 316 312 310 310 311 313 312 314 309 302 307 312 319 317 310 305 310 314 317 322 323 329 359 345 339 323 325 321 323 322 313 310 306
315 311 317 324 321 318 313 311 309 304 304 311 309 308 309 312 307 303 303 314 320 315 310 304 303 306 309 313 316 320 329 341 335 343 325 324 318 318 318 316 310 316
311 321 322 319 314 308 306 303 303 301 304 304 301 303 304 304 300 300 306 313 310 305 305 303 299 301 307 309 312 317 328 334 343 3 347 318 315 319 316 316 318 311
326 326 316 309 305 302 299 293 292 300 297 300 301 300 297 296 297 301 304 301 299 298 292 294 296 299 302 305 307 315 322 331 1 12 320 313 316 307 314 312 307 301